Regional Weather Roundup
Issued by NWS

Home | Current Version | Previous Version | Graphics & Text | Print | Product List | Glossary On
Versions: 1 2 3 4 5 6 7 8 9 10 11 12 13 14 15 16 17 18 19 20 21 22 23 24 25 26 27 28 29 30 31 32 33 34 35 36 37 38 39 40 41 42 43 44 45 46 47 48 49 50
000
ASUS45 KBOI 260110
RWRID
WEATHER ROUNDUP FOR IDAHO
NATIONAL WEATHER SERVICE BOISE ID
700 PM MDT SAT APR 25 2015

NOTE: "FAIR" INDICATES FEW OR NO CLOUDS BELOW 12000 FEET
WITH NO SIGNIFICANT WEATHER AND/OR OBSTRUCTIONS TO VISIBILITY

IDZ012-014-260200-
SOUTHWEST IDAHO


CITY           SKY/WX    TMP DP  RH WIND       PRES   REMARKS
BOISE          PTSUNNY   58  27  30 NW21G30   29.78R
CALDWELL       PTSUNNY   55  27  33 W17G23    29.82R
MOUNTAIN HOME  CLOUDY    58  20  23 NW15      29.77R
$$

IDZ016-017-260200-
SOUTHCENTRAL IDAHO


CITY           SKY/WX    TMP DP  RH WIND       PRES   REMARKS
BURLEY         CLOUDY    46  33  60 W10G20    29.75R
JEROME         LGT RAIN  45  34  65 W14       29.80R
TWIN FALLS     CLOUDY    47  34  60 W13       29.80R
$$

IDZ019>023-260200-
SOUTHEAST IDAHO


CITY           SKY/WX    TMP DP  RH WIND       PRES   REMARKS
IDAHO FALLS    CLOUDY    53  29  39 NE10      29.72S
POCATELLO      CLOUDY    52  34  50 SW7       29.73R
REXBURG        PTSUNNY   51  27  39 E7        29.73S
$$

IDZ006-010-011-018-031-032-260200-
CENTRAL IDAHO MOUNTAINS


CITY           SKY/WX    TMP DP  RH WIND       PRES   REMARKS
MCCALL         PTSUNNY   41  30  65 VRB5      29.80R
HAILEY         CLOUDY    43  34  70 SE12      29.78R
STANLEY          N/A     39  25  57 N12G18    29.78R WCI  32
SALMON         CLOUDY    52  25  35 SE6       29.74R
CHALLIS        CLOUDY    41  33  73 NE7       29.77R
$$

IDZ002-004-006-007-026-260200-
NORTHERN IDAHO


CITY           SKY/WX    TMP DP  RH WIND       PRES   REMARKS
LEWISTON       LGT RAIN  52  37  56 CALM      29.89R
LOWELL           N/A     50  39  66 CALM      29.91R
COEUR D`ALENE  CLOUDY    45  36  70 N7        29.93R
MULLAN PASS    SNOW      30  30 100 NW7       29.84R VSB 1/4 WCI  23
$$


USA.gov is the U.S. government's official web portal to all federal, state and local government web resources and services.